Regional Weather Roundup
Issued by NWS Cleveland, OH

Home | Current Version | Previous Version | Text Only | Print | Product List | Glossary Off
Versions: 1 2 3 4 5 6 7 8 9 10 11 12 13 14 15 16 17 18 19 20 21 22 23 24 25 26 27 28 29 30 31 32 33 34 35 36 37 38 39 40 41 42 43 44 45 46 47 48 49 50

000
ASUS41 KCLE 250600
RWRCLE
OHIO REGIONAL WEATHER ROUNDUP
NATIONAL WEATHER SERVICE WILMINGTON, OH
200 AM EDT SAT OCT 25 2014

NOTE: "FAIR" INDICATES FEW OR NO CLOUDS BELOW 12,000 FEET WITH NO
SIGNIFICANT WEATHER AND/OR OBSTRUCTIONS TO VISIBILITY.

OHZ001>008-015>018-024>027-034-035-043-044-250700-
   NORTHWEST OHIO

CITY           SKY/WX    TMP DP  RH WIND       PRES   REMARKS
DEFIANCE       MOCLDY    50  47  89 SW5       29.97S FOG
FINDLAY        PTCLDY    48  43  82 S6        29.97S
TOLEDO EXPRESS PTCLDY    47  44  90 SW3       29.95F
TOLEDO METCALF PTCLDY    50  44  80 SW6       29.96F
LIMA           PTCLDY    53  46  77 SW8       29.98F
$$

OHZ009>014-019>023-028>033-038-089-250700-
   NORTHEAST OHIO

CITY           SKY/WX    TMP DP  RH WIND       PRES   REMARKS
CLE-HOPKINS    CLOUDY    52  42  69 S3        29.99F
CLE-LAKEFRONT  CLOUDY    55  44  66 S5        29.96F
CUY CO. ARPT   NOT AVBL
LORAIN-ELYRIA  CLOUDY    50  43  77 SW5       29.97F
ASHTABULA      CLOUDY    48  43  82 S5        29.96F
AKRON-CANTON   PTCLDY    48  38  68 SW3       29.99F
WOOSTER        NOT AVBL
MANSFIELD      CLOUDY    49  41  74 S6        29.99F
YOUNGSTOWN     CLOUDY    49  41  74 SW3       29.98F
$$

OHZ042-051>053-060>062-070>072-077>081-250700-
  SOUTHWEST OHIO

CITY           SKY/WX    TMP DP  RH WIND       PRES   REMARKS
CINC-COVINGTON MOCLDY    50  42  74 CALM      30.03F
CINC-LUNKEN    CLEAR     42  41  96 CALM      30.05F FOG
HAMILTON       CLEAR     41  39  93 CALM      30.04F
DAYTON         NOT AVBL
WRIGHT-PAT AFB PTCLDY    46  41  81 CALM      30.01F
DAYTON GENERAL PTCLDY    49  41  74 S3        30.01F
WILMINGTON     PTCLDY    47  38  71 SW5       30.02F
$$

OHZ036-037-039>041-045>050-054>059-063>069-073>076-082>088-250700-
  CENTRAL AND SOUTHEAST OHIO

CITY           SKY/WX    TMP DP  RH WIND       PRES   REMARKS
COLUMBUS       PTCLDY    47  39  74 CALM      30.01F
OSU AIRPORT    PTCLDY    47  38  71 CALM      30.00F
BOLTON FIELD   NOT AVBL
RICKENBACK AFB NOT AVBL
NEWARK         PTCLDY    39  37  92 CALM      30.01F
MARION         MOCLDY    47  40  76 S5        29.99F
LANCASTER      MOCLDY    40  38  93 SE3       30.02S
ZANESVILLE     CLEAR     39  37  92 CALM      30.02S
NEW PHILLY     CLEAR     42  40  92 CALM      30.01F
$$



USA.gov is the U.S. government's official web portal to all federal, state and local government web resources and services.